Regional Weather Roundup
Issued by NWS Kansas City/Pleasant Hill, MO

Home | Current Version | Previous Version | Graphics & Text | Print | Product List | Glossary Off
Versions: 1 2 3 4 5 6 7 8 9 10 11 12 13 14 15 16 17 18 19 20 21 22 23 24 25 26 27 28 29 30 31 32 33 34 35 36 37 38 39 40 41 42 43 44 45 46 47 48 49 50

000
ASUS43 KEAX 020010
RWREAX

WEATHER ROUNDUP FOR EASTERN KANSAS AND NORTHWEST MISSOURI
NATIONAL WEATHER SERVICE KANSAS CITY/PLEASANT HILL MO
700 PM CDT WED APR 01 2015

KSZ040-057-103>105-MOZ028-029-037-043-020100-
...KANSAS CITY METROPOLITAN AREA...

CITY           SKY/WX    TMP DP  RH WIND       PRES   REMARKS
K.C. INTL      PTCLDY    69  51  52 SE20G29   29.72F
6HR MIN TEMP:  69; 6HR MAX TEMP:  80;

K.C. DOWNTOWN  CLEAR     70  54  56 S13G26    29.72F
6HR MIN TEMP:  70; 6HR MAX TEMP:  82; 6HR PCP: TRACE;

LEES SUMMIT    PTCLDY    67  56  67 S10G22    29.75F
6HR MIN TEMP:  67; 6HR MAX TEMP:  79; 6HR PCP: TRACE;

OLATHE - IXD   CLEAR     67  55  65 SE20G28   29.74F
6HR MIN TEMP:  67; 6HR MAX TEMP:  79;

OLATHE - OJC   CLEAR     66  57  72 S17G28    29.73F
6HR MIN TEMP:  66; 6HR MAX TEMP:  79;

LAWRENCE       CLEAR     68  56  65 SE18G29   29.71R

$$

MOZ001>008-011>017-020>025-030>033-038>040-044>046-053-054-020100-
...NORTHERN AND CENTRAL MISSOURI...

CITY           SKY/WX    TMP DP  RH WIND       PRES   REMARKS
ST. JOSEPH     CLEAR     72  55  55 S22G35    29.69R
6HR MIN TEMP:  72; 6HR MAX TEMP:  82;

MOSBY          PTCLDY    68  52  56 SE10      29.74F
WARRENSBURG    CLOUDY    63  54  72 SE17G23   29.77F
WHITEMAN AFB   MOCLDY    63  55  77 S12G20    29.78F
6HR MIN TEMP:  62; 6HR MAX TEMP:  78;

CLINTON        MOCLDY    63  59  88 SE12      29.79F
SEDALIA        CLOUDY    61  58  90 SE9       29.80F
6HR MIN TEMP:  60; 6HR MAX TEMP:  80; 6HR PCP:  0.18;

WARSAW         NOT AVBL
MARSHALL       CLOUDY    66  57  72 S15       29.81S
CHILLICOTHE      N/A     71  55  56 S15G30    29.76F
6HR MIN TEMP:  71; 6HR MAX TEMP:  80;

MOBERLY        CLOUDY    68  48  49 S22G31    29.81F
KIRKSVILLE     MOCLDY    71  47  42 S15G22    29.78F
6HR MIN TEMP:  71; 6HR MAX TEMP:  79; 6HR PCP: TRACE;


$$

MOZ041-047>049-056>058-063>065-088>090-097-020100-
...EASTERN AND SOUTHERN MISSOURI...

CITY           SKY/WX    TMP DP  RH WIND       PRES   REMARKS
ST. LOUIS INTL CLOUDY    73  36  25 S17G24    29.88F
6HR MIN TEMP:  73; 6HR MAX TEMP:  78;

SPIRIT OF STL  CLOUDY    73  38  27 S9        29.86F
COLUMBIA       LGT RAIN  59  57  93 SE13      29.85F
JEFFERSON CITY LGT RAIN  60  57  89 E7        29.84F FOG
MEXICO         CLOUDY    72  54  53 S18G24    29.84
HANNIBAL       CLOUDY    73  32  21 S7        29.81F
ROLLA          CLOUDY    59  53  80 SW6       29.86F
LEBANON        CLOUDY    61  57  88 E5        29.84S THUNDER
OSAGE BEACH    CLOUDY    59  54  82 SE10G16   29.82F
SPRINGFIELD    MOCLDY    65  61  87 SE16      29.80F
BRANSON        MOCLDY    64  63  94 SE12      29.85S THUNDER
NEVADA         CLEAR     63  59  88 SE13G18   29.77F
JOPLIN         CLEAR     70  63  78 VRB6      29.76F
WEST PLAINS    MOCLDY    65  57  75 SE9       29.90F

$$

IAZ060-094-KSZ022-034>040-054-083-096-NEZ052-066-093-020100-
...KANSAS...SOUTHEAST NEBRASKA AND IOWA...

CITY           SKY/WX    TMP DP  RH WIND       PRES   REMARKS
TOPEKA         CLEAR     74  55  51 SE22      29.67S
6HR MIN TEMP:  74; 6HR MAX TEMP:  81;

MANHATTAN      CLEAR     80  55  42 S22G31    29.59F
EMPORIA        CLEAR     75  58  55 SE20G28   29.65F
CHANUTE        CLEAR     75  61  61 SE14G22   29.70F
WICHITA        PTCLDY    80  54  40 S22G33    29.61F
OMAHA          MOCLDY    81  48  31 S28G36    29.54F
LINCOLN        CLEAR     81  46  29 S26G33    29.54R
FALLS CITY     CLEAR     77  51  40 S23G31    29.62S
LAMONI         CLEAR     74  51  44 S26G36    29.69S
DES MOINES     PTCLDY    77  46  33 S29G37    29.65F

$$



USA.gov is the U.S. government's official web portal to all federal, state and local government web resources and services.